When you browse on this site, cookies collect data to enhance your experience and personalize the content and advertising you see.
Visit our Privacy Policy to learn more. By continuing to use the site, you agree to this use of cookies and data.

Hourly Weather Sacapa

Today, 6 August, Thursday

Time Temperature Precipitation Wind Pressure Humidity
00:00 +20°C° 0 mm 0 mps 696 mmHg 97%
01:00 +20°C° 0 mm 0 mps 696 mmHg 96%
02:00 +20°C° 0 mm 0 mps 696 mmHg 96%
03:00 +20°C° 0 mm 0 mps 695 mmHg 95%
04:00 +20°C° 0 mm 0 mps 695 mmHg 95%
05:00 +20°C° 0 mm 0 mps 695 mmHg 95%
06:00 +20°C° 0 mm 0 mps 696 mmHg 93%
07:00 +21°C° 0 mm 0 mps 696 mmHg 87%
08:00 +23°C° 0 mm 0 mps 697 mmHg 80%
09:00 +25°C° 0 mm 0 mps 698 mmHg 73%
10:00 +29°C° 0 mm 1 mps 697 mmHg 69%
11:00 +30°C° 0 mm 1 mps 697 mmHg 65%
12:00 +31°C° 0 mm 1 mps 697 mmHg 61%
13:00 +30°C° 1 mm 1 mps 696 mmHg 70%
14:00 +28°C° 1 mm 1 mps 696 mmHg 80%
15:00 +27°C° 1 mm 1 mps 695 mmHg 89%
16:00 +26°C° 2.4 mm 1 mps 695 mmHg 92%
17:00 +24°C° 2.4 mm 1 mps 695 mmHg 94%
18:00 +23°C° 2.4 mm 1 mps 695 mmHg 97%
19:00 +23°C° 1.2 mm 1 mps 695 mmHg 98%
20:00 +23°C° 1.2 mm 1 mps 696 mmHg 98%
21:00 +20°C° 1.2 mm 0 mps 697 mmHg 98%
22:00 +20°C° 0.3 mm 0 mps 697 mmHg 98%
23:00 +20°C° 0.3 mm 0 mps 697 mmHg 98%

Tomorrow, 7 August, Friday

Time Temperature Precipitation Wind Pressure Humidity
00:00 +20°C° 0.3 mm 0 mps 697 mmHg 98%
01:00 +20°C° 0.6 mm 0 mps 696 mmHg 98%
02:00 +20°C° 0.6 mm 0 mps 696 mmHg 98%
03:00 +20°C° 0.6 mm 0 mps 696 mmHg 98%
04:00 +20°C° 0.6 mm 0 mps 696 mmHg 98%
05:00 +20°C° 0.6 mm 0 mps 696 mmHg 98%
06:00 +20°C° 0.6 mm 0 mps 696 mmHg 99%
07:00 +21°C° 0.2 mm 0 mps 696 mmHg 96%
08:00 +22°C° 0.2 mm 0 mps 697 mmHg 93%
09:00 +23°C° 0.2 mm 0 mps 698 mmHg 90%
10:00 +24°C° 0.8 mm 0 mps 698 mmHg 87%
11:00 +27°C° 0.8 mm 1 mps 697 mmHg 84%
12:00 +28°C° 0.8 mm 1 mps 697 mmHg 80%
13:00 +28°C° 1.8 mm 1 mps 697 mmHg 82%
14:00 +28°C° 1.8 mm 1 mps 696 mmHg 84%
15:00 +27°C° 1.8 mm 1 mps 696 mmHg 86%
16:00 +26°C° 1.9 mm 1 mps 696 mmHg 89%
17:00 +25°C° 1.9 mm 1 mps 696 mmHg 93%
18:00 +23°C° 1.9 mm 1 mps 696 mmHg 96%
19:00 +23°C° 2.5 mm 1 mps 696 mmHg 97%
20:00 +21°C° 2.5 mm 0 mps 697 mmHg 98%
21:00 +20°C° 2.5 mm 0 mps 697 mmHg 98%
22:00 +20°C° 1.5 mm 0 mps 697 mmHg 98%
23:00 +20°C° 1.5 mm 0 mps 697 mmHg 98%

Day after tomorrow, 8 August, Saturday

Time Temperature Precipitation Wind Pressure Humidity
00:00 +20°C° 1.5 mm 0 mps 698 mmHg 98%
01:00 +20°C° 0.5 mm 0 mps 697 mmHg 98%
02:00 +20°C° 0.5 mm 0 mps 697 mmHg 98%
03:00 +20°C° 0.5 mm 0 mps 696 mmHg 98%
04:00 +20°C° 0.2 mm 0 mps 697 mmHg 98%
05:00 +20°C° 0.2 mm 0 mps 697 mmHg 98%
06:00 +20°C° 0.2 mm 0 mps 697 mmHg 98%
07:00 +21°C° 0 mm 0 mps 698 mmHg 95%
08:00 +24°C° 0 mm 1 mps 698 mmHg 92%
09:00 +25°C° 0 mm 1 mps 698 mmHg 89%
10:00 +26°C° 0.3 mm 1 mps 698 mmHg 83%
11:00 +27°C° 0.3 mm 1 mps 698 mmHg 76%
12:00 +29°C° 0.3 mm 2 mps 698 mmHg 70%
13:00 +29°C° 0.4 mm 2 mps 698 mmHg 71%
14:00 +29°C° 0.4 mm 2 mps 697 mmHg 72%
15:00 +29°C° 0.4 mm 2 mps 697 mmHg 72%
16:00 +27°C° 0.9 mm 2 mps 697 mmHg 80%
17:00 +26°C° 0.9 mm 2 mps 697 mmHg 88%
18:00 +24°C° 0.9 mm 1 mps 697 mmHg 95%
19:00 +24°C° 0.7 mm 1 mps 697 mmHg 96%
20:00 +23°C° 0.7 mm 1 mps 698 mmHg 97%
21:00 +22°C° 0.7 mm 1 mps 698 mmHg 97%
22:00 +22°C° 0.3 mm 1 mps 698 mmHg 97%
23:00 +22°C° 0.3 mm 1 mps 698 mmHg 98%

9 August, Sunday

Time Temperature Precipitation Wind Pressure Humidity
00:00 +22°C° 0.3 mm 1 mps 698 mmHg 98%
01:00 +22°C° 0.1 mm 1 mps 698 mmHg 98%
02:00 +20°C° 0.1 mm 0 mps 697 mmHg 98%
03:00 +20°C° 0.1 mm 0 mps 697 mmHg 98%
04:00 +20°C° 0.5 mm 0 mps 697 mmHg 98%
05:00 +19°C° 0.5 mm 0 mps 697 mmHg 98%
06:00 +19°C° 0.5 mm 0 mps 697 mmHg 98%
07:00 +20°C° 0.1 mm 0 mps 697 mmHg 95%
08:00 +24°C° 0.1 mm 1 mps 698 mmHg 92%
09:00 +25°C° 0.1 mm 1 mps 699 mmHg 89%
10:00 +27°C° 0.1 mm 1 mps 699 mmHg 81%
11:00 +28°C° 0.1 mm 1 mps 698 mmHg 74%
12:00 +30°C° 0.1 mm 1 mps 698 mmHg 66%
13:00 +29°C° 0.8 mm 2 mps 698 mmHg 72%
14:00 +29°C° 0.8 mm 2 mps 697 mmHg 78%
15:00 +28°C° 0.8 mm 2 mps 696 mmHg 84%
16:00 +27°C° 1.3 mm 2 mps 696 mmHg 88%
17:00 +25°C° 1.3 mm 1 mps 696 mmHg 93%
18:00 +23°C° 1.3 mm 1 mps 696 mmHg 98%
19:00 +23°C° 2.2 mm 1 mps 696 mmHg 98%
20:00 +23°C° 2.2 mm 1 mps 697 mmHg 98%
21:00 +22°C° 2.2 mm 1 mps 697 mmHg 99%
22:00 +22°C° 0.2 mm 1 mps 697 mmHg 98%
23:00 +22°C° 0.2 mm 1 mps 697 mmHg 98%

10 August, Monday

Time Temperature Precipitation Wind Pressure Humidity
00:00 +20°C° 0.2 mm 0 mps 697 mmHg 98%
01:00 +20°C° 0.4 mm 0 mps 697 mmHg 98%
02:00 +20°C° 0.4 mm 0 mps 696 mmHg 98%
03:00 +19°C° 0.4 mm 0 mps 696 mmHg 98%
04:00 +19°C° 0.3 mm 0 mps 696 mmHg 97%
05:00 +20°C° 0.3 mm 0 mps 696 mmHg 97%
06:00 +20°C° 0.3 mm 0 mps 696 mmHg 97%
07:00 +20°C° 0.1 mm 0 mps 697 mmHg 96%
08:00 +23°C° 0.1 mm 1 mps 697 mmHg 95%
09:00 +23°C° 0.1 mm 1 mps 698 mmHg 94%
10:00 +25°C° 0.1 mm 1 mps 697 mmHg 88%
11:00 +26°C° 0.1 mm 1 mps 697 mmHg 81%
12:00 +27°C° 0.1 mm 1 mps 697 mmHg 75%
13:00 +27°C° 0.6 mm 1 mps 696 mmHg 78%
14:00 +27°C° 0.6 mm 2 mps 696 mmHg 80%
15:00 +27°C° 0.6 mm 2 mps 695 mmHg 83%
16:00 +26°C° 0.8 mm 2 mps 695 mmHg 87%
17:00 +25°C° 0.8 mm 1 mps 695 mmHg 92%
18:00 +23°C° 0.8 mm 1 mps 695 mmHg 96%
19:00 +23°C° 0.5 mm 1 mps 696 mmHg 96%
20:00 +23°C° 0.5 mm 1 mps 696 mmHg 97%
21:00 +22°C° 0.5 mm 1 mps 697 mmHg 98%
22:00 +22°C° 0.4 mm 1 mps 696 mmHg 98%
23:00 +22°C° 0.4 mm 1 mps 696 mmHg 98%

11 August, Tuesday

Time Temperature Precipitation Wind Pressure Humidity
00:00 +22°C° 0.4 mm 1 mps 696 mmHg 98%
01:00 +22°C° 0.1 mm 1 mps 696 mmHg 98%
02:00 +20°C° 0.1 mm 0 mps 695 mmHg 98%
03:00 +20°C° 0.1 mm 0 mps 695 mmHg 98%
04:00 +20°C° 0.3 mm 0 mps 695 mmHg 98%
05:00 +20°C° 0.3 mm 0 mps 695 mmHg 98%
06:00 +20°C° 0.3 mm 0 mps 695 mmHg 98%
07:00 +20°C° 0.3 mm 0 mps 696 mmHg 96%
08:00 +23°C° 0.3 mm 1 mps 696 mmHg 95%
09:00 +24°C° 0.3 mm 1 mps 697 mmHg 94%
10:00 +24°C° 0.3 mm 1 mps 697 mmHg 91%
11:00 +25°C° 0.3 mm 1 mps 696 mmHg 89%
12:00 +26°C° 0.3 mm 1 mps 696 mmHg 87%
13:00 +26°C° 0.5 mm 1 mps 696 mmHg 86%
14:00 +26°C° 0.5 mm 2 mps 695 mmHg 85%
15:00 +26°C° 0.5 mm 2 mps 695 mmHg 85%
16:00 +25°C° 1.1 mm 1 mps 695 mmHg 89%
17:00 +24°C° 1.1 mm 1 mps 695 mmHg 93%
18:00 +23°C° 1.1 mm 1 mps 695 mmHg 97%
19:00 +22°C° 0.6 mm 1 mps 696 mmHg 97%
20:00 +22°C° 0.6 mm 1 mps 696 mmHg 97%
21:00 +22°C° 0.6 mm 1 mps 697 mmHg 97%
22:00 +22°C° 0.1 mm 1 mps 696 mmHg 97%
23:00 +22°C° 0.1 mm 1 mps 696 mmHg 97%
Show more